Regional Weather Roundup
Issued by NWS

Home | Current Version | Previous Version | Graphics & Text | Print | Product List | Glossary Off
Versions: 1 2 3 4 5 6 7 8 9 10 11 12 13 14 15 16 17 18 19 20 21 22 23 24 25 26 27 28 29 30 31 32 33 34 35 36 37 38 39 40 41 42 43 44 45 46 47 48 49 50

000
ASUS43 KTOP 281908
RWRKS

WEATHER ROUNDUP FOR KANSAS
NATIONAL WEATHER SERVICE GOODLAND KS
200 PM CDT FRI APR 28 2017

NOTE:  "FAIR" INDICATES FEW OR NO CLOUDS BELOW 12,000 FEET WITH NO
SIGNIFICANT WEATHER AND/OR OBSTRUCTIONS TO VISIBILITY.

KSZ001>006-013>018-027>032-041>047-282000-
NORTHWEST KANSAS

CITY           SKY/WX    TMP DP  RH WIND       PRES   REMARKS
GOODLAND       PTSUNNY   49  38  65 N18G26    29.72R
HAYS           SUNNY     62  46  55 N14       29.67S
HILL CITY      PTSUNNY   52  45  77 N22       29.73R
RUSSELL        MOSUNNY   64  46  52 N12G18    29.65R
$$

KSZ061>065-074>080-084>089-282000-
SOUTHWEST KANSAS

CITY           SKY/WX    TMP DP  RH WIND       PRES   REMARKS
DODGE CITY     SUNNY     68  36  30 NE7       29.65F
ELKHART          N/A     58  32  37 S13         N/A
GARDEN CITY    MOSUNNY   64  36  35 VRB6      29.67S
GREAT BEND     SUNNY     65  44  46 N13G18    29.66S
LIBERAL        CLOUDY    65  33  30 E3        29.66S
PRATT          CLOUDY    64  40  42 N14       29.66S
$$

KSZ066>073-081>083-090>101-282000-
SOUTHEAST KANSAS

CITY           SKY/WX    TMP DP  RH WIND       PRES   REMARKS
CHANUTE        CLOUDY    64  58  80 S6        29.68R
COFFEYVILLE    CLOUDY    67  59  75 SW8       29.67R
HUTCHINSON     SUNNY     69  44  40 NW12      29.64F
MEDICINE LODGE   N/A     70  41  34 N9G18     29.65S
NEWTON         SUNNY     70  48  45 NW8       29.65F
PARSONS        CLOUDY    66  58  75 S6        29.68R
WICHITA INTL   MOSUNNY   71  51  49 VRB5      29.64F
WICHITA JABRA  SUNNY     71  50  47 N7        29.64F
WICHITA MCCONL SUNNY     70  46  43 CALM      29.65S
WINFIELD       MOSUNNY   71  55  56 CALM      29.66S
$$

KSZ007>012-019>026-033>040-048>060-102>105-282000-
NORTHEAST KANSAS

CITY           SKY/WX    TMP DP  RH WIND       PRES   REMARKS
CONCORDIA        N/A     49  48  97 MISG      29.70R
EMPORIA        PTSUNNY   67  58  72 MISG      29.65F
LAWRENCE       CLOUDY    62  59  90 SE7       29.68S
MANHATTAN      CLOUDY    64  55  72 VRB3      29.66R
MARYSVILLE     RAIN      45  43  93 NE9       29.73R
OLATHE IND     CLOUDY    59  58  96 S8        29.69R
OLATHE EXE     CLOUDY    57  57 100 S12       29.69S FOG
SALINA         MOSUNNY   70  50  49 NW15      29.65F
TOPEKA BILLARD CLOUDY    63  58  83 S7        29.67S
TOPEKA FORBES  CLOUDY    64  58  80 S6        29.66F
$$



USA.gov is the U.S. government's official web portal to all federal, state and local government web resources and services.